• In Uzbekistan
  • List of Countries
  • For 7 days
  • Water Temperature
  • Satellite Maps
  • Weather Map
  • Weather Widgets
  • user-avatar
    Login

    Hourly Weather Sevan

    Today, 4 December, Sunday

    Time Temperature Precipitation Wind Pressure Humidity
    00:00 -2°C° 0 mm 3 mps 643 mmHg 76%
    01:00 -2°C° 0 mm 3 mps 643 mmHg 76%
    02:00 -2°C° 0 mm 3 mps 643 mmHg 77%
    03:00 -1°C° 0 mm 3 mps 643 mmHg 74%
    04:00 -1°C° 0 mm 3 mps 643 mmHg 75%
    05:00 -1°C° 0 mm 3 mps 643 mmHg 76%
    06:00 -2°C° 0 mm 2 mps 643 mmHg 78%
    07:00 -1°C° 0 mm 3 mps 644 mmHg 74%
    08:00 0°C° 0 mm 3 mps 644 mmHg 71%
    09:00 0°C° 0 mm 3 mps 644 mmHg 68%
    10:00 +1°C° 0 mm 3 mps 644 mmHg 64%
    11:00 +1°C° 0 mm 4 mps 644 mmHg 61%
    12:00 +3°C° 0 mm 4 mps 644 mmHg 58%
    13:00 +3°C° 0.1 mm 4 mps 643 mmHg 60%
    14:00 +3°C° 0.1 mm 3 mps 643 mmHg 61%
    15:00 +3°C° 0.1 mm 3 mps 643 mmHg 63%
    16:00 +3°C° 0 mm 2 mps 643 mmHg 68%
    17:00 +2°C° 0 mm 2 mps 643 mmHg 72%
    18:00 +2°C° 0 mm 1 mps 643 mmHg 76%
    19:00 +2°C° 0.1 mm 1 mps 643 mmHg 77%
    20:00 +2°C° 0.1 mm 1 mps 643 mmHg 78%
    21:00 +1°C° 0.1 mm 1 mps 643 mmHg 78%
    22:00 +1°C° 0.1 mm 1 mps 643 mmHg 79%
    23:00 +1°C° 0.1 mm 1 mps 643 mmHg 79%

    Tomorrow, 5 December, Monday

    Time Temperature Precipitation Wind Pressure Humidity
    00:00 +1°C° 0.1 mm 1 mps 643 mmHg 79%
    01:00 0°C° 0 mm 1 mps 643 mmHg 79%
    02:00 0°C° 0 mm 1 mps 643 mmHg 79%
    03:00 0°C° 0 mm 1 mps 642 mmHg 79%
    04:00 0°C° 0 mm 1 mps 642 mmHg 80%
    05:00 0°C° 0 mm 1 mps 642 mmHg 80%
    06:00 -1°C° 0 mm 1 mps 642 mmHg 80%
    07:00 0°C° 0 mm 1 mps 642 mmHg 77%
    08:00 +1°C° 0 mm 1 mps 642 mmHg 73%
    09:00 +2°C° 0 mm 1 mps 643 mmHg 70%
    10:00 +3°C° 0.1 mm 1 mps 642 mmHg 67%
    11:00 +3°C° 0.1 mm 2 mps 642 mmHg 65%
    12:00 +3°C° 0.1 mm 2 mps 642 mmHg 62%
    13:00 +3°C° 0.2 mm 2 mps 641 mmHg 65%
    14:00 +3°C° 0.2 mm 2 mps 641 mmHg 67%
    15:00 +2°C° 0.2 mm 2 mps 641 mmHg 70%
    16:00 +3°C° 0.4 mm 1 mps 641 mmHg 73%
    17:00 +2°C° 0.4 mm 1 mps 640 mmHg 77%
    18:00 +1°C° 0.4 mm 1 mps 640 mmHg 81%
    19:00 +1°C° 0.4 mm 1 mps 640 mmHg 81%
    20:00 +1°C° 0.4 mm 1 mps 640 mmHg 82%
    21:00 +1°C° 0.4 mm 1 mps 640 mmHg 83%
    22:00 0°C° 0.2 mm 1 mps 640 mmHg 83%
    23:00 0°C° 0.2 mm 1 mps 640 mmHg 83%

    Day after tomorrow, 6 December, Tuesday

    Time Temperature Precipitation Wind Pressure Humidity
    00:00 -1°C° 0.2 mm 1 mps 640 mmHg 84%
    01:00 -1°C° 0.1 mm 1 mps 641 mmHg 83%
    02:00 -4°C° 0.1 mm 2 mps 641 mmHg 82%
    03:00 -4°C° 0.1 mm 2 mps 641 mmHg 81%
    04:00 -5°C° 0.1 mm 2 mps 641 mmHg 80%
    05:00 -5°C° 0.1 mm 2 mps 642 mmHg 79%
    06:00 -6°C° 0.1 mm 2 mps 642 mmHg 78%
    07:00 -6°C° 0.1 mm 2 mps 643 mmHg 75%
    08:00 -6°C° 0.1 mm 2 mps 643 mmHg 72%
    09:00 -5°C° 0.1 mm 2 mps 644 mmHg 69%
    10:00 -5°C° 0 mm 2 mps 644 mmHg 64%
    11:00 -4°C° 0 mm 2 mps 644 mmHg 59%
    12:00 -3°C° 0 mm 2 mps 644 mmHg 54%
    13:00 -3°C° 0 mm 2 mps 644 mmHg 56%
    14:00 -1°C° 0 mm 1 mps 644 mmHg 57%
    15:00 -2°C° 0 mm 1 mps 643 mmHg 58%
    16:00 -4°C° 0 mm 1 mps 643 mmHg 62%
    17:00 -7°C° 0 mm 1 mps 642 mmHg 67%
    18:00 -9°C° 0 mm 1 mps 642 mmHg 72%
    19:00 -9°C° 0 mm 1 mps 642 mmHg 71%
    20:00 -9°C° 0 mm 1 mps 642 mmHg 71%
    21:00 -9°C° 0 mm 1 mps 642 mmHg 70%
    22:00 -9°C° 0 mm 1 mps 642 mmHg 70%
    23:00 -9°C° 0 mm 1 mps 642 mmHg 71%

    7 December, Wednesday

    Time Temperature Precipitation Wind Pressure Humidity
    00:00 -9°C° 0 mm 1 mps 642 mmHg 71%
    01:00 -10°C° 0 mm 1 mps 641 mmHg 72%
    02:00 -10°C° 0 mm 1 mps 641 mmHg 72%
    03:00 -10°C° 0 mm 1 mps 641 mmHg 73%
    04:00 -10°C° 0 mm 1 mps 641 mmHg 72%
    05:00 -10°C° 0 mm 1 mps 640 mmHg 72%
    06:00 -10°C° 0 mm 1 mps 640 mmHg 71%
    07:00 -8°C° 0 mm 1 mps 641 mmHg 67%
    08:00 -6°C° 0 mm 1 mps 642 mmHg 62%
    09:00 -3°C° 0 mm 1 mps 642 mmHg 57%
    10:00 -2°C° 0 mm 1 mps 642 mmHg 55%
    11:00 -2°C° 0 mm 2 mps 642 mmHg 52%
    12:00 -1°C° 0 mm 2 mps 642 mmHg 49%
    13:00 -1°C° 0 mm 2 mps 641 mmHg 50%
    14:00 -1°C° 0 mm 2 mps 641 mmHg 52%
    15:00 -1°C° 0 mm 2 mps 641 mmHg 53%
    16:00 -2°C° 0 mm 1 mps 640 mmHg 56%
    17:00 -4°C° 0 mm 1 mps 640 mmHg 59%
    18:00 -7°C° 0 mm 1 mps 639 mmHg 62%
    19:00 -7°C° 0 mm 1 mps 639 mmHg 62%
    20:00 -8°C° 0 mm 1 mps 639 mmHg 62%
    21:00 -8°C° 0 mm 1 mps 639 mmHg 62%
    22:00 -8°C° 0 mm 1 mps 639 mmHg 63%
    23:00 -8°C° 0 mm 1 mps 639 mmHg 64%

    8 December, Thursday

    Time Temperature Precipitation Wind Pressure Humidity
    00:00 -7°C° 0 mm 1 mps 639 mmHg 64%
    01:00 -7°C° 0 mm 1 mps 639 mmHg 65%
    02:00 -7°C° 0 mm 1 mps 640 mmHg 66%
    03:00 -7°C° 0 mm 1 mps 640 mmHg 68%
    04:00 -7°C° 0 mm 1 mps 640 mmHg 69%
    05:00 -7°C° 0 mm 1 mps 641 mmHg 70%
    06:00 -7°C° 0 mm 1 mps 641 mmHg 71%
    07:00 -6°C° 0 mm 1 mps 642 mmHg 68%
    08:00 -4°C° 0 mm 1 mps 643 mmHg 65%
    09:00 -3°C° 0 mm 1 mps 644 mmHg 62%
    10:00 -4°C° 0 mm 2 mps 644 mmHg 60%
    11:00 -4°C° 0 mm 2 mps 644 mmHg 57%
    12:00 -4°C° 0 mm 3 mps 644 mmHg 54%
    13:00 -4°C° 0 mm 3 mps 644 mmHg 55%
    14:00 -4°C° 0 mm 2 mps 644 mmHg 56%
    15:00 -4°C° 0 mm 2 mps 644 mmHg 56%
    16:00 -5°C° 0 mm 2 mps 643 mmHg 61%
    17:00 -6°C° 0 mm 1 mps 643 mmHg 66%
    18:00 -8°C° 0 mm 1 mps 643 mmHg 71%
    19:00 -8°C° 0 mm 1 mps 643 mmHg 70%
    20:00 -7°C° 0 mm 1 mps 643 mmHg 69%
    21:00 -7°C° 0 mm 1 mps 643 mmHg 69%
    22:00 -7°C° 0 mm 1 mps 643 mmHg 70%
    23:00 -8°C° 0 mm 1 mps 643 mmHg 70%

    9 December, Friday

    Time Temperature Precipitation Wind Pressure Humidity
    00:00 -8°C° 0 mm 1 mps 643 mmHg 71%
    01:00 -8°C° 0 mm 1 mps 643 mmHg 71%
    02:00 -9°C° 0 mm 1 mps 642 mmHg 72%
    03:00 -9°C° 0 mm 1 mps 642 mmHg 72%
    04:00 -10°C° 0 mm 1 mps 642 mmHg 72%
    05:00 -10°C° 0 mm 1 mps 642 mmHg 71%
    06:00 -10°C° 0 mm 1 mps 642 mmHg 71%
    07:00 -8°C° 0 mm 1 mps 642 mmHg 67%
    08:00 -7°C° 0 mm 1 mps 643 mmHg 63%
    09:00 -4°C° 0 mm 1 mps 643 mmHg 59%
    10:00 -3°C° 0 mm 1 mps 643 mmHg 56%
    11:00 -2°C° 0 mm 1 mps 642 mmHg 54%
    12:00 -2°C° 0 mm 2 mps 642 mmHg 51%
    13:00 -2°C° 0 mm 2 mps 642 mmHg 52%
    14:00 -2°C° 0 mm 2 mps 642 mmHg 53%
    15:00 -2°C° 0 mm 2 mps 641 mmHg 55%
    16:00 -2°C° 0 mm 1 mps 641 mmHg 59%
    17:00 -3°C° 0 mm 1 mps 641 mmHg 64%
    18:00 -6°C° 0 mm 1 mps 640 mmHg 68%
    19:00 -6°C° 0 mm 1 mps 640 mmHg 69%
    20:00 -6°C° 0 mm 1 mps 640 mmHg 69%
    21:00 -7°C° 0 mm 1 mps 640 mmHg 69%
    22:00 -7°C° 0 mm 1 mps 639 mmHg 70%
    23:00 -7°C° 0 mm 1 mps 639 mmHg 71%
    Show more